COSMOS 796

Satellite information

Favourite Embed

Satellite Type and Status

PAYLOADIN ORBIT

Key statistics

Satellite COSMOS 796 at a glance.

Uptime

18220

Days in orbit

Revolutions

≈ 12.4

Per day

Orbit

LEO

Low Earth Orbit

Inclination

74.1

Latest

Satellite identification and parameters

Extended collection of information and parameters for COSMOS 796.

Object identification

Identified? True

Debris? False

Object name: COSMOS 796

International designator: 1976-008F

Object number (NORAD): 8612

Object ID (CCSDS): 8612

Country: COMMONWEALTH OF INDEPENDENT STATES (CIS)

Current information (Y/N): Y

RCS size: MEDIUM

Orbital parameters

Period: 115.833 minutes

Inclination: 74.0522 deg

SMA: 7871.348 km

Apoapsis: 1514.635 km

Periapsis: 1471.792 km

RAAN: 193.1513 deg

Eccentricy: 0.00272146

Argument of periapsis: 126.1417 deg

Mean anomaly: 341.9871 deg

Mean motion: 12.43165876 rev/day

Mean motion (dot): 0.00000016 rev/day2

B* drag term: 0.00022260226 1/REarth

Two-line elements (TLE)

Creation date: Dec. 16, 2025, 2:19 a.m.

Reference frame: TEME

Reference center: EARTH

Epoch: Dec. 15, 2025, 11:37 p.m. UTC

TLE line 0: 0 COSMOS 796

TLE line 1: 1 08612U 76008F 25349.98427425 .00000016 00000-0 22260-3 0 9994

TLE line 2: 2 08612 74.0522 193.1513 0027215 126.1417 341.9871 12.43165876263772

Live tracking on map

Real-time ground track for satellite COSMOS 796.

In-orbit conjunctions

There are no conjunctions computed for COSMOS 796, at the moment. Check back to stay up to date, as we update our databases every day.

Go to all conjunctions

Associated space launch

Military communications satellites

COSMOS 796 was lifted into orbit during the mission ‘Kosmos-3M | Strela-1M 105-112’, on board a Kosmos-3M space rocket.

The launch took place on Jan. 28, 1976, 10:39 a.m. from 132/1 (132L).

For more information about the launch, click the button.

Launch to space Kosmos-3M | Strela-1M 105-112
Kosmos-3M | Strela-1M 105-112

Agency: N/A

Status: Launch Successful

Launch date: Jan. 28, 1976, 10:39 a.m. UTC

Rocket: Kosmos-3M

Launch pad: 132/1 (132L)

Location: Plesetsk Cosmodrome, Russian Federation

...

Latest news about this satellite

There are no fresh news available about this satellite. Check back as we update our databases every day.


Newsletter sign-up

Weekly statistics, charts and insights to help you stay on top of the space industry.